GW2259 Weather Reports


Display with metric or nautical units.
time (UTC)temp
F
wind
direction
speed
MPH
gust
MPH
rain 1hr
in
rain 24hr
in
rain mn
in
humidity
%
barometer
mb
20260903213041 101 120 8.0 14.0 0.00 0.00 0.00 32 1010.4
20260903211611 101 100 6.0 10.0 0.00 0.00 0.00 32 1010.5
20260903210040 100 96 3.0 6.0 0.00 0.00 0.00 30 1010.7
20260903204540 100 235 1.0 7.0 0.00 0.00 0.00 31 1010.9
20260903203044 101 137 6.0 10.0 0.00 0.00 0.00 30 1011.2
20260903201544 102 119 4.0 8.0 0.00 0.00 0.00 31 1011.4
20260903200042 101 117 7.0 10.0 0.00 0.00 0.00 31 1011.5
20260903194546 101 96 3.0 11.0 0.00 0.00 0.00 32 1011.6
20260903193048 101 169 1.0 9.0 0.00 0.00 0.00 32 1012.0
20260903191542 100 218 5.0 8.0 0.00 0.00 0.00 31 1012.3
20260903190044 99 213 3.0 8.0 0.00 0.00 0.00 35 1012.5
20260903184541 99 309 4.0 7.0 0.00 0.00 0.00 34 1012.7
20260903183039 97 210 3.0 8.0 0.00 0.00 0.00 39 1013.0
20260903181543 96 234 5.0 9.0 0.00 0.00 0.00 40 1013.3
20260903180044 96 264 5.0 10.0 0.00 0.00 0.00 42 1013.5
20260903174558 95 241 6.0 11.0 0.00 0.00 0.00 45 1013.8
20260903173045 94 207 5.0 10.0 0.00 0.00 0.00 45 1014.1
20260903171543 93 257 4.0 12.0 0.00 0.00 0.00 47 1014.2
20260903170104 93 221 4.0 13.0 0.00 0.00 0.00 51 1014.3
20260903164549 92 202 6.0 13.0 0.00 0.00 0.00 53 1014.3
20260903163044 90 246 4.0 12.0 0.00 0.00 0.00 56 1014.4
20260903161542 90 252 6.0 11.0 0.00 0.00 0.00 57 1014.5
20260903160048 89 220 6.0 11.0 0.00 0.00 0.00 59 1014.4
20260903154546 87 137 6.0 9.0 0.00 0.00 0.00 62 1014.4
20260903153046 87 229 4.0 12.0 0.00 0.00 0.00 63 1014.4
20260903151550 86 208 6.0 10.0 0.00 0.00 0.00 65 1014.6
20260903150046 85 220 6.0 11.0 0.00 0.00 0.00 66 1014.6
20260903144547 85 237 5.0 11.0 0.00 0.00 0.00 67 1014.5
20260903143044 84 203 6.0 12.0 0.00 0.00 0.00 69 1014.5
20260903141543 83 206 7.0 12.0 0.00 0.00 0.00 71 1014.6
20260903140045 82 200 6.0 11.0 0.00 0.00 0.00 71 1014.6
20260903134542 82 222 5.0 10.0 0.00 0.00 0.00 73 1014.6
20260903133051 81 211 6.0 11.0 0.00 0.00 0.00 75 1014.6
20260903131552 80 189 5.0 9.0 0.00 0.00 0.00 76 1014.6
20260903130039 79 221 3.0 8.0 0.00 0.00 0.00 77 1014.4
20260903124544 78 203 2.0 8.0 0.00 0.00 0.00 80 1014.3
20260903123042 76 220 2.0 5.0 0.00 0.00 0.00 81 1014.1
20260903121544 76 220 2.0 6.0 0.00 0.00 0.00 81 1013.9
20260903120043 76 175 2.0 6.0 0.00 0.00 0.00 81 1013.8
20260903114543 76 212 2.0 7.0 0.00 0.00 0.00 81 1013.7
20260903113042 75 244 1.0 2.0 0.00 0.00 0.00 81 1013.7
20260903111615 75 0 0.0 2.0 0.00 0.00 0.00 79 1013.7
20260903110041 75 229 0.0 5.0 0.00 0.00 0.00 79 1013.6
20260903104557 75 207 0.0 1.0 0.00 0.00 0.00 78 1013.5
20260903103042 75 0 0.0 3.0 0.00 0.00 0.00 77 1013.4
20260903101546 75 0 0.0 3.0 0.00 0.00 0.00 76 1013.5
20260903100042 75 257 0.0 2.0 0.00 0.00 0.00 75 1013.5
20260903094547 75 0 0.0 1.0 0.00 0.00 0.00 73 1013.6
20260903093045 75 219 0.0 2.0 0.00 0.00 0.00 72 1013.6
20260903091539 75 0 0.0 0.0 0.00 0.00 0.00 72 1013.6
20260903090048 75 0 0.0 1.0 0.00 0.00 0.00 70 1013.7
20260903084543 75 262 0.0 1.0 0.00 0.00 0.00 70 1013.6
20260903083040 75 0 0.0 2.0 0.00 0.00 0.00 70 1013.7
20260903081542 74 209 0.0 1.0 0.00 0.00 0.00 71 1013.8
20260903080038 75 0 0.0 2.0 0.00 0.00 0.00 69 1013.9
20260903074542 75 0 0.0 0.0 0.00 0.00 0.00 70 1014.1
20260903073047 74 0 0.0 0.0 0.00 0.00 0.00 71 1014.1
20260903071540 75 0 0.0 0.0 0.00 0.00 0.00 70 1014.2
20260903070046 76 0 0.0 0.0 0.00 0.00 0.00 68 1014.1
20260903064544 76 0 0.0 0.0 0.00 0.00 0.00 69 1014.2
20260903063042 76 0 0.0 0.0 0.00 0.00 0.00 68 1014.4
20260903061556 76 0 0.0 0.0 0.00 0.00 0.00 68 1014.3
20260903060039 77 0 0.0 2.0 0.00 0.00 0.00 67 1014.1
20260903054542 79 186 1.0 2.0 0.00 0.00 0.00 60 1014.1
20260903053100 80 132 2.0 3.0 0.00 0.00 0.00 60 1014.2
20260903051544 80 148 1.0 2.0 0.00 0.00 0.00 59 1014.2
20260903050044 81 130 2.0 4.0 0.00 0.00 0.00 58 1014.1
20260903044539 82 131 3.0 7.0 0.00 0.00 0.00 55 1014.0
20260903043043 83 122 4.0 8.0 0.00 0.00 0.00 54 1014.2
20260903041543 82 107 4.0 6.0 0.00 0.00 0.00 55 1014.1
20260903040043 83 108 2.0 4.0 0.00 0.00 0.00 54 1014.1
20260903034537 83 94 3.0 5.0 0.00 0.00 0.00 53 1014.1
20260903033049 83 94 3.0 5.0 0.00 0.00 0.00 53 1014.0
20260903031549 83 113 3.0 5.0 0.00 0.00 0.00 54 1013.8
20260903030107 83 98 3.0 5.0 0.00 0.00 0.00 54 1013.6
20260903024538 84 99 2.0 3.0 0.00 0.00 0.00 52 1013.5
20260903023043 84 94 2.0 3.0 0.00 0.00 0.00 51 1013.3
20260903021543 85 94 2.0 4.0 0.00 0.00 0.00 49 1013.0
20260903020041 86 91 2.0 4.0 0.00 0.00 0.00 48 1012.8
20260903014541 87 94 3.0 5.0 0.00 0.00 0.00 46 1012.7
20260903013046 88 90 3.0 5.0 0.00 0.00 0.00 44 1012.4
20260903011557 90 96 3.0 5.0 0.00 0.00 0.00 41 1012.2
20260903010042 91 97 2.0 5.0 0.00 0.00 0.00 39 1012.2
20260903004544 94 82 2.0 5.0 0.00 0.00 0.00 36 1012.2
20260903003040 96 80 2.0 5.0 0.00 0.00 0.00 33 1012.1
20260903001542 99 81 2.0 5.0 0.00 0.00 0.00 31 1012.2
20260903000043 100 86 3.0 5.0 0.00 0.00 0.00 29 1012.2
20260902234542 101 84 3.0 6.0 0.00 0.00 0.00 29 1012.3
20260902233037 102 101 1.0 6.0 0.00 0.00 0.00 27 1012.4
20260902231551 102 91 4.0 6.0 0.00 0.00 0.00 27 1012.3
20260902230039 101 122 2.0 8.0 0.00 0.00 0.00 29 1012.4
20260902224553 102 67 5.0 9.0 0.00 0.00 0.00 28 1012.4
20260902223049 101 115 5.0 11.0 0.00 0.00 0.00 28 1012.5
20260902221557 101 0 0.0 7.0 0.00 0.00 0.00 29 1012.5
20260902220056 100 122 4.0 9.0 0.00 0.00 0.00 30 1012.6
20260902214543 102 70 2.0 8.0 0.00 0.00 0.00 28 1012.5